| time (UTC) | temp F | wind direction | speed MPH | gust MPH | rain 1hr in | rain 24hr in | rain mn in | humidity % | barometer mb |
| 20260505193001 | 0 | 0.0 | 0.0 | 0.00 | 0.00 | 0.00 | 1004.3 | ||
| 20260505191501 | 0 | 0.0 | 0.0 | 0.00 | 0.00 | 0.00 | 1004.0 | ||
| 20260505190003 | 0 | 0.0 | 0.0 | 0.00 | 0.00 | 0.00 | 1004.0 | ||
| 20260505184502 | 0 | 0.0 | 0.0 | 0.00 | 0.00 | 0.00 | 1004.0 | ||
| 20260505183002 | 0 | 0.0 | 1.0 | 0.00 | 0.00 | 0.00 | 1003.9 | ||
| 20260505181502 | 0 | 0.0 | 0.0 | 0.00 | 0.00 | 0.00 | 1004.0 | ||
| 20260505180002 | 0 | 2.0 | 3.0 | 0.00 | 0.00 | 0.00 | 1003.8 | ||
| 20260505174502 | 0 | 1.0 | 3.0 | 0.00 | 0.00 | 0.00 | 1004.2 | ||
| 20260505173001 | 0 | 0.0 | 2.0 | 0.00 | 0.00 | 0.00 | 1004.3 | ||
| 20260505171501 | 0 | 0.0 | 4.0 | 0.00 | 0.00 | 0.00 | 1004.4 | ||
| 20260505170001 | 0 | 2.0 | 4.0 | 0.00 | 0.00 | 0.00 | 1004.4 | ||
| 20260505164502 | 0 | 1.0 | 4.0 | 0.00 | 0.00 | 0.00 | 1004.4 | ||
| 20260505163002 | 0 | 1.0 | 3.0 | 0.00 | 0.00 | 0.00 | 1004.4 | ||
| 20260505161501 | 0 | 0.0 | 1.0 | 0.00 | 0.00 | 0.00 | 1004.2 | ||
| 20260505153002 | 0 | 1.0 | 1.0 | 0.00 | 0.00 | 0.00 | 1004.5 | ||
| 20260505151502 | 0 | 0.0 | 3.0 | 0.00 | 0.00 | 0.00 | 1004.4 | ||
| 20260505124501 | 0 | 0.0 | 1.0 | 0.00 | 0.00 | 0.00 | 1005.0 | ||
| 20260505123002 | 0 | 0.0 | 3.0 | 0.00 | 0.00 | 0.00 | 1005.0 | ||
| 20260505121502 | 0 | 1.0 | 3.0 | 0.00 | 0.00 | 0.00 | 1004.8 | ||
| 20260505120001 | 0 | 0.0 | 2.0 | 0.00 | 0.00 | 0.00 | 1005.0 | ||
| 20260505114501 | 0 | 2.0 | 2.0 | 0.00 | 0.00 | 0.00 | 1004.9 | ||
| 20260505113001 | 0 | 0.0 | 1.0 | 0.00 | 0.00 | 0.00 | 1004.9 | ||
| 20260505111502 | 0 | 1.0 | 2.0 | 0.00 | 0.00 | 0.00 | 1005.0 | ||
| 20260505101501 | 0 | 0.0 | 0.0 | 0.00 | 0.00 | 0.00 | 1005.0 | ||
| 20260505100001 | 0 | 0.0 | 1.0 | 0.00 | 0.00 | 0.00 | 1005.0 | ||
| 20260505094502 | 0 | 1.0 | 2.0 | 0.00 | 0.00 | 0.00 | 1004.9 | ||
| 20260505093002 | 0 | 0.0 | 0.0 | 0.00 | 0.00 | 0.00 | 1004.8 | ||
| 20260505091501 | 0 | 0.0 | 0.0 | 0.00 | 0.00 | 0.00 | 1004.8 | ||
| 20260505090001 | 0 | 0.0 | 0.0 | 0.00 | 0.00 | 0.00 | 1004.7 | ||
| 20260505084501 | 0 | 0.0 | 1.0 | 0.00 | 0.00 | 0.00 | 1004.6 | ||
| 20260505083001 | 0 | 1.0 | 1.0 | 0.00 | 0.00 | 0.00 | 1004.4 | ||
| 20260505081502 | 0 | 0.0 | 0.0 | 0.00 | 0.00 | 0.00 | 1004.4 | ||
| 20260505080002 | 0 | 0.0 | 0.0 | 0.00 | 0.00 | 0.00 | 1004.5 | ||
| 20260505074501 | 0 | 2.0 | 3.0 | 0.00 | 0.00 | 0.00 | 1004.3 | ||
| 20260505073001 | 0 | 2.0 | 4.0 | 0.00 | 0.00 | 0.00 | 1004.5 | ||
| 20260505071501 | 0 | 0.0 | 1.0 | 0.00 | 0.00 | 0.00 | 1004.0 | ||
| 20260505070001 | 0 | 0.0 | 1.0 | 0.00 | 0.00 | 0.00 | 1003.7 | ||
| 20260505064502 | 0 | 0.0 | 0.0 | 0.00 | 0.00 | 0.00 | 1003.6 | ||
| 20260505063002 | 0 | 0.0 | 0.0 | 0.00 | 0.00 | 0.00 | 1003.5 | ||
| 20260505061501 | 0 | 0.0 | 0.0 | 0.00 | 0.00 | 0.00 | 1003.5 | ||
| 20260505060001 | 0 | 0.0 | 1.0 | 0.00 | 0.00 | 0.00 | 1003.4 | ||
| 20260505054501 | 0 | 0.0 | 0.0 | 0.00 | 0.00 | 0.00 | 1003.1 | ||
| 20260505053001 | 0 | 0.0 | 1.0 | 0.00 | 0.00 | 0.00 | 1003.0 | ||
| 20260505051502 | 0 | 0.0 | 1.0 | 0.00 | 0.00 | 0.00 | 1003.0 | ||
| 20260505041501 | 0 | 0.0 | 1.0 | 0.00 | 0.00 | 0.00 | 1003.0 | ||
| 20260505040001 | 0 | 0.0 | 3.0 | 0.00 | 0.00 | 0.00 | 1003.0 | ||
| 20260505034502 | 0 | 0.0 | 1.0 | 0.00 | 0.00 | 0.00 | 1003.1 | ||
| 20260505033002 | 0 | 2.0 | 5.0 | 0.00 | 0.00 | 0.00 | 1003.0 | ||
| 20260505031501 | 0 | 1.0 | 3.0 | 0.00 | 0.00 | 0.00 | 1003.9 | ||
| 20260505030001 | 0 | 1.0 | 1.0 | 0.00 | 0.00 | 0.00 | 1003.8 | ||
| 20260505024501 | 0 | 0.0 | 1.0 | 0.00 | 0.00 | 0.00 | 1004.1 | ||
| 20260505023002 | 0 | 0.0 | 0.0 | 0.00 | 0.00 | 0.00 | 1004.4 | ||
| 20260505021502 | 0 | 2.0 | 3.0 | 0.00 | 0.00 | 0.00 | 1004.2 | ||
| 20260505020001 | 0 | 0.0 | 4.0 | 0.00 | 0.00 | 0.00 | 1004.3 | ||
| 20260505014501 | 0 | 2.0 | 3.0 | 0.00 | 0.00 | 0.00 | 1004.1 | ||
| 20260505013001 | 0 | 0.0 | 3.0 | 0.00 | 0.00 | 0.00 | 1004.5 | ||
| 20260505011501 | 0 | 1.0 | 3.0 | 0.00 | 0.00 | 0.00 | 1004.9 | ||
| 20260505010002 | 0 | 1.0 | 2.0 | 0.00 | 0.00 | 0.00 | 1005.3 | ||
| 20260505004502 | 0 | 1.0 | 2.0 | 0.00 | 0.00 | 0.00 | 1005.5 | ||
| 20260505003001 | 0 | 1.0 | 2.0 | 0.00 | 0.00 | 0.00 | 1005.9 | ||
| 20260505001501 | 0 | 0.0 | 1.0 | 0.00 | 0.00 | 0.00 | 1006.1 | ||
| 20260505000001 | 0 | 0.0 | 3.0 | 0.00 | 0.00 | 0.00 | 1006.0 | ||
| 20260504234501 | 0 | 1.0 | 3.0 | 0.00 | 0.00 | 0.00 | 1006.2 | ||
| 20260504233002 | 0 | 2.0 | 3.0 | 0.00 | 0.00 | 0.00 | 1006.3 | ||
| 20260504231503 | 0 | 2.0 | 3.0 | 0.00 | 0.00 | 0.00 | 1006.8 | ||
| 20260504230001 | 0 | 2.0 | 4.0 | 0.00 | 0.00 | 0.00 | 1007.0 | ||
| 20260504224501 | 0 | 1.0 | 3.0 | 0.07 | 0.00 | 0.00 | 1007.2 | ||
| 20260504223001 | 0 | 1.0 | 1.0 | 0.07 | 0.00 | 0.00 | 1007.4 | ||
| 20260504221502 | 0 | 1.0 | 3.0 | 0.07 | 0.00 | 0.00 | 1007.2 | ||
| 20260504214709 | 0 | 1.0 | 2.0 | 0.03 | 0.00 | 0.00 | 1008.0 | ||
| 20260504213208 | 0 | 0.0 | 1.0 | 0.00 | 0.00 | 0.00 | 1007.9 | ||
| 20260504211709 | 0 | 0.0 | 1.0 | 0.00 | 0.00 | 0.00 | 1008.1 | ||
| 20260504210208 | 0 | 0.0 | 3.0 | 0.00 | 0.00 | 0.00 | 1008.2 | ||
| 20260504204709 | 0 | 1.0 | 4.0 | 0.00 | 0.00 | 0.00 | 1008.5 | ||
| 20260504203208 | 0 | 0.0 | 2.0 | 0.00 | 0.00 | 0.00 | 1008.5 | ||
| 20260504201709 | 0 | 1.0 | 4.0 | 0.00 | 0.00 | 0.00 | 1008.3 | ||
| 20260504200208 | 0 | 2.0 | 4.0 | 0.00 | 0.00 | 0.00 | 1008.5 | ||
| 20260504194709 | 0 | 0.0 | 2.0 | 0.00 | 0.00 | 0.00 | 1008.5 |